Temperature
7 5 5 5 6 7 6 6 6 7 7 7 6 6 7 7 7 7 7 7 7 7 7 7 7 7 8 8 8 8 8 8 8 8 8 8 8 8 8 8 8 8 8 8
5 5 6 6 6 7 6 6 5 6 7 7 6 6 6 6 6 7 7 7 7 7 7 7 7 7 7 7 7 7 7 7 7 7 7 7 7 7 7 8 8 8 8 8
5 5 6 6 6 6 6 5 5 6 6 6 5 5 6 6 7 7 7 7 7 7 6 7 7 7 7 7 7 7 7 7 7 7 7 7 7 7 7 7 7 7 7 7
4 5 6 6 5 6 5 6 6 5 4 4 5 5 5 5 6 6 6 6 6 6 6 6 6 6 6 6 6 6 6 6 6 6 6 6 6 6 6 6 6 6 6 6
4 5 5 5 5 5 5 5 5 4 4 3 4 4 5 5 5 5 5 6 6 6 6 6 6 6 6 6 6 6 6 6 6 6 6 6 6 5 6 5 5 6 6 6
4 5 5 5 5 5 5 4 4 2 2 3 4 4 4 4 5 5 5 5 6 5 5 5 6 6 6 6 6 6 5 5 5 5 5 5 5 5 5 5 5 5 5 5
4 4 4 5 4 4 4 3 3 3 2 3 4 4 4 5 5 5 5 5 5 5 5 5 5 5 5 5 5 5 5 5 5 5 5 5 5 5 4 4 4 4 5 5
3 3 4 4 4 4 3 3 3 4 4 3 4 4 4 5 5 5 5 5 5 5 5 5 5 4 4 4 4 4 5 5 4 4 4 4 4 4 4 4 4 4 4 4
3 3 3 4 4 4 3 3 3 2 2 3 3 3 4 5 4 4 4 4 4 4 4 4 4 4 4 4 4 4 4 4 4 4 4 3 3 3 3 3 3 3 4 4
2 2 3 3 4 4 4 3 2 2 3 4 4 4 4 4 4 3 3 3 4 4 4 4 4 3 3 3 3 3 3 4 3 3 3 3 3 3 3 3 3 3 3 3
2 2 2 2 2 2 3 3 2 1 2 3 4 4 4 4 3 3 3 3 3 3 3 3 3 3 3 3 3 3 3 3 3 3 3 2 2 2 2 2 3 3 3 3
1 1 1 1 1 1 2 2 1 2 2 1 2 3 4 3 3 3 3 3 3 3 3 3 3 3 2 2 2 2 2 2 2 2 2 2 2 2 2 2 2 3 3 3
1 0 2 2 1 1 1 1 0 0 1 0 2 4 3 3 3 3 3 3 3 2 2 2 2 2 2 2 2 2 2 2 2 2 2 2 2 2 2 2 2 2 2 2
1 -0 1 3 2 1 0 0 0 0 1 1 1 2 3 2 1 2 2 2 2 2 2 2 2 2 2 2 2 2 2 2 2 2 2 2 2 2 2 1 2 2 2 2
-0 -0 -0 0 1 0 0 0 -1 0 1 1 1 1 2 1 1 1 1 1 2 1 1 1 1 1 1 1 1 1 2 2 1 1 1 1 1 1 1 1 1 1 1 1
-2 -1 -1 -0 0 0 0 0 -0 -0 -0 -0 -0 0 1 1 1 1 1 1 1 1 1 1 1 1 1 1 1 1 1 1 1 1 1 1 1 1 1 1 1 1 1 1
-3 -2 -1 -0 -0 0 1 0 -1 -1 -1 -1 0 1 -0 -0 0 0 1 0 0 0 1 0 0 1 1 1 1 1 1 1 1 1 1 1 1 1 1 0 0 0 0 0
-3 -2 -2 -1 -0 1 2 0 -1 -1 -1 -2 -1 -1 -1 -0 0 1 1 0 0 0 0 0 0 0 0 1 0 0 1 1 1 1 1 0 0 0 0 -0 -0 -0 -0 -0
-2 -2 -2 -2 -1 0 1 0 -1 -1 -1 -1 -2 -2 -1 -1 -1 0 1 0 0 0 0 0 0 0 0 0 0 0 0 0 0 0 0 -0 -0 -0 -0 -1 -1 -1 -1 -1
-3 -3 -2 -2 -0 1 1 -0 -0 -0 -0 -0 -1 -2 -1 -2 -2 -1 0 0 -0 0 0 0 0 0 0 -0 -0 -0 -0 -0 -0 -0 -0 -0 -1 -1 -1 -1 -1 -2 -2 -2
-3 -3 -3 -2 -1 -1 -0 -1 -0 0 1 0 -0 -1 -1 -2 -1 -0 -0 -0 -0 -0 -0 -0 -0 -0 -0 -0 -0 -0 -0 -1 -1 -1 -1 -1 -1 -1 -2 -2 -2 -2 -2 -2
-3 -3 -3 -3 -2 -0 -1 -2 -1 -0 0 0 -0 -0 -1 -1 -0 -1 -1 -1 -1 -1 -1 -1 -1 -1 -1 -1 -1 -1 -1 -1 -1 -1 -2 -2 -2 -2 -2 -2 -2 -3 -3 -3
-4 -3 -3 -2 -1 -1 -1 -1 0 0 -0 -0 -0 -0 -1 -1 -1 -1 -1 -1 -1 -1 -1 -1 -1 -1 -1 -1 -1 -1 -1 -2 -2 -2 -2 -2 -2 -2 -2 -3 -3 -3 -3 -4
-4 -4 -4 -4 -3 -2 -1 -0 -0 -0 -0 -0 -0 -1 -1 -1 -1 -1 -2 -2 -2 -2 -2 -2 -2 -2 -2 -2 -2 -2 -2 -2 -2 -2 -3 -3 -3 -3 -3 -3 -3 -3 -4 -4
-3 -5 -4 -4 -3 -2 -1 -0 0 -0 -0 -0 -1 -1 -1 -2 -2 -2 -2 -2 -2 -2 -2 -2 -2 -2 -2 -2 -2 -2 -2 -2 -3 -3 -3 -3 -3 -3 -3 -3 -4 -4 -4 -4
-4 -4 -3 -2 -1 -2 -1 0 -0 -1 -1 -1 -1 -1 -2 -2 -2 -2 -2 -2 -2 -2 -2 -3 -3 -3 -3 -3 -3 -3 -3 -3 -3 -3 -3 -3 -4 -4 -4 -4 -4 -4 -4 -4
Wind_Speed
2 3 4 7 8 6 4 3 6 6 4 2 6 10 10 7 4 5 5 5 6 6 4 3 2 2 1 0 1 2 2 2 1 0 0 1 2 2 2 2 3 3 3 3
3 3 7 4 4 4 5 5 5 6 2 2 5 9 8 6 6 6 6 6 6 4 3 2 2 1 1 2 2 2 2 2 2 1 1 1 2 2 3 2 3 3 3 3
5 4 3 3 2 3 4 6 6 5 4 2 2 6 6 5 4 3 4 5 4 5 5 4 3 2 2 3 3 3 3 3 3 2 1 1 1 1 2 2 3 3 3 3
2 4 2 2 3 3 5 5 4 3 1 3 0 4 7 5 4 3 5 4 4 4 4 4 3 3 4 5 4 4 4 4 3 2 2 2 2 3 3 3 3 3 4 4
2 1 2 3 4 4 5 2 2 2 2 2 2 3 8 2 5 6 6 5 4 4 4 4 4 4 4 4 4 4 4 4 3 3 3 3 3 3 3 3 3 3 3 3
3 2 2 3 3 3 2 2 3 3 2 3 5 5 6 4 6 5 4 4 4 3 3 3 3 3 3 3 3 4 4 4 4 3 4 4 4 4 3 3 3 3 2 2
3 3 2 0 1 1 2 4 3 3 2 6 3 4 8 6 5 5 5 5 3 3 3 2 3 4 4 4 4 4 3 4 4 4 4 4 5 4 5 4 3 3 2 2
1 4 3 1 3 3 3 5 5 4 4 4 2 6 7 4 3 2 2 3 1 2 3 3 4 4 4 5 4 4 4 4 4 4 5 4 4 3 3 4 3 3 3 3
3 4 2 2 1 3 3 3 4 3 1 3 5 6 6 2 3 2 2 1 1 3 4 4 4 4 4 5 5 4 4 4 4 5 5 4 4 4 4 4 3 3 3 2
3 2 3 2 1 1 2 4 3 3 2 4 5 5 5 4 3 2 2 2 3 4 4 4 3 4 5 5 5 4 4 5 5 4 4 4 4 4 4 4 4 3 3 3
2 2 2 2 2 4 2 2 3 3 3 3 4 6 4 5 4 3 3 3 3 3 3 4 4 4 5 5 4 4 4 4 4 5 5 4 4 4 4 4 4 4 3 3
1 2 2 4 3 2 3 4 5 3 4 3 3 7 4 2 2 1 3 4 4 3 3 4 5 5 5 5 5 5 5 5 5 5 4 4 4 4 4 4 4 4 3 3
2 3 1 4 3 2 1 2 2 2 2 4 4 7 3 5 5 4 4 5 5 5 5 5 5 5 5 6 5 5 5 5 5 4 4 4 4 4 4 4 4 4 3 3
2 2 4 6 5 3 4 4 3 3 3 5 7 9 8 7 7 7 7 6 5 5 5 5 6 6 5 5 5 5 5 5 4 4 4 4 4 4 4 3 3 3 3 3
2 2 3 5 5 3 5 5 5 7 7 7 7 8 10 6 6 6 6 7 6 6 7 6 6 6 6 6 5 5 5 4 4 3 3 3 3 2 2 2 2 2 2 2
1 1 1 3 3 3 5 6 5 7 6 8 7 9 7 6 4 5 5 6 7 8 8 8 7 7 7 6 5 5 5 4 3 3 3 2 1 1 1 1 1 1 1 1
1 2 1 3 3 3 5 6 6 4 4 5 7 7 6 6 6 6 6 6 7 8 8 8 8 7 7 6 4 4 4 4 3 2 2 1 1 0 0 0 0 1 1 1
3 2 2 1 2 3 5 1 4 4 4 5 5 5 5 7 8 6 5 5 7 8 8 8 8 7 6 5 4 4 3 2 2 2 1 1 0 0 0 0 0 0 0 0
3 4 2 1 2 6 5 2 2 3 4 3 5 7 6 6 6 5 4 4 6 7 8 7 6 6 5 4 4 3 3 2 2 2 1 1 0 0 1 1 1 0 1 0
2 2 2 2 2 4 5 2 1 2 4 3 3 5 5 4 3 5 6 7 7 7 7 6 5 5 4 4 2 2 2 2 2 2 1 1 1 1 1 1 1 1 1 1
1 1 2 3 4 6 4 1 2 2 5 4 3 4 3 3 4 6 7 7 6 7 6 5 4 4 4 3 2 2 2 2 2 2 2 2 2 1 1 1 1 2 1 2
5 4 4 4 3 6 1 3 4 5 3 2 3 3 3 5 5 6 6 6 6 6 6 5 4 4 4 3 3 3 3 3 2 3 3 3 2 2 2 2 2 2 2 2
5 6 5 6 6 3 3 4 4 2 3 3 3 4 3 4 5 6 6 6 6 6 5 5 4 4 5 4 3 2 3 3 3 3 3 3 3 3 2 2 2 2 1 1
3 2 3 4 6 5 4 4 4 3 4 4 3 3 2 3 5 5 5 5 6 5 5 4 4 4 5 4 4 2 3 3 3 4 3 3 3 3 3 2 2 1 1 1
4 4 3 4 6 5 4 4 5 4 3 3 3 3 2 3 4 4 5 5 5 5 5 4 3 3 4 4 4 4 3 3 3 3 3 3 3 3 3 3 2 1 1 0
4 6 6 6 6 4 5 3 2 2 4 3 3 3 2 2 3 4 4 4 4 5 4 4 4 4 4 4 4 4 4 2 2 2 3 2 2 2 2 2 3 5 3 4
Wind_Direction
86 99 202 218 210 208 205 223 257 265 273 252 247 263 271 266 252 247 237 222 219 229 241 197 191 191 184 275 292 267 253 257 237 248 273 284 282 277 280 284 291 287 282 278
59 236 238 232 217 214 220 237 266 283 281 255 267 274 270 253 239 231 221 218 215 222 244 220 219 221 232 248 276 284 267 262 252 240 227 230 245 252 251 271 290 284 282 280
195 241 247 217 224 216 237 222 236 258 314 304 289 290 266 267 248 238 222 213 209 210 222 226 233 236 241 253 255 269 263 263 258 245 225 265 289 300 299 288 270 281 284 279
225 270 253 214 244 217 250 242 236 251 293 281 236 280 278 264 274 260 241 223 215 224 226 223 231 242 242 245 251 251 254 257 259 246 224 223 241 260 266 261 263 275 276 269
254 268 226 231 238 203 219 246 246 245 209 291 251 226 284 281 268 266 248 235 224 225 216 217 234 242 249 247 251 251 249 254 258 254 238 230 248 253 263 264 261 263 266 269
246 263 234 224 248 204 179 41 30 33 70 270 230 192 276 240 239 259 255 245 227 229 229 235 254 269 272 265 263 258 250 257 255 252 247 235 237 244 256 274 269 273 284 280
310 291 288 200 92 9 93 97 21 349 336 252 227 200 251 252 246 231 231 224 222 231 238 259 280 287 288 285 277 263 250 263 259 248 249 247 242 237 237 247 253 261 270 279
232 278 253 232 187 193 187 155 172 210 235 277 268 234 256 274 278 255 188 174 190 261 272 271 272 276 281 283 277 258 249 255 256 248 250 250 243 241 245 239 236 241 245 253
193 248 287 268 227 166 153 191 186 154 204 273 267 275 294 295 357 17 32 32 302 289 291 292 298 294 288 286 276 255 252 257 257 253 254 254 245 239 247 248 237 238 246 254
166 246 286 295 45 292 168 154 121 153 183 265 284 271 257 264 275 291 297 293 292 298 304 307 308 306 300 288 280 269 254 250 252 255 256 259 252 241 237 242 244 248 248 243
145 172 305 345 200 207 166 161 161 155 172 186 266 270 242 230 229 234 257 273 282 291 299 308 315 313 311 307 295 284 273 269 266 260 254 250 251 247 241 241 241 241 240 244
172 144 248 260 264 279 205 189 163 173 227 198 219 270 297 265 284 268 282 293 299 298 296 299 306 314 321 318 305 291 283 280 272 258 253 247 248 244 243 245 244 239 242 247
139 128 18 338 335 348 273 228 193 161 152 187 212 265 338 4 353 338 316 306 308 309 311 312 314 315 314 313 309 301 289 282 280 268 255 251 243 240 240 244 247 240 229 228
104 159 192 216 239 207 244 248 201 170 199 227 232 262 299 318 322 322 321 312 307 305 310 314 314 310 311 310 307 303 295 288 288 274 254 242 241 239 234 233 229 224 216 221
89 214 239 263 268 240 247 245 219 216 217 223 251 258 272 286 290 296 305 314 315 313 312 310 309 308 312 312 309 306 303 298 289 270 253 249 248 238 227 228 235 234 227 243
61 203 278 291 276 250 268 265 235 234 232 239 268 276 274 293 301 308 311 316 314 311 309 307 305 305 307 305 305 306 306 301 291 278 271 263 238 222 217 220 226 238 231 246
167 154 191 270 306 331 279 245 213 222 223 202 233 254 307 315 306 295 298 305 299 303 304 303 303 299 298 297 294 294 299 306 302 289 287 279 235 209 195 265 254 239 238 237
162 149 170 268 6 247 249 216 190 209 250 233 250 274 289 291 298 288 285 295 302 307 306 302 301 304 305 306 303 305 316 319 315 318 319 314 341 4 43 50 35 360 90 190
185 162 159 162 248 278 295 275 185 201 276 242 251 281 302 319 325 307 298 311 300 300 299 295 294 298 308 313 315 327 333 342 351 339 337 331 119 89 39 31 39 66 92 48
68 127 148 158 200 245 267 291 262 114 294 279 252 282 300 345 336 298 320 324 314 315 316 316 316 322 325 323 341 360 341 349 336 330 335 355 64 91 79 75 72 72 88 90
122 118 177 195 228 264 270 288 103 137 270 292 263 273 275 252 252 286 313 318 317 318 322 333 342 346 334 333 13 15 5 349 334 357 20 26 37 65 124 99 80 72 68 67
174 170 193 169 204 260 225 126 177 233 286 283 280 281 276 281 296 310 315 318 326 333 340 346 354 348 348 7 40 26 356 344 11 33 38 32 28 27 56 90 81 74 76 77
199 196 193 197 213 256 190 206 244 254 273 283 290 290 285 290 303 313 319 322 327 331 336 348 356 354 358 10 32 15 344 7 35 43 40 35 31 33 47 84 86 74 79 95
249 199 187 250 261 254 249 259 278 265 263 280 283 286 291 288 299 313 322 326 328 330 334 345 0 2 356 1 11 1 352 23 47 43 35 37 40 33 33 40 47 66 62 72
227 174 195 253 272 292 273 249 263 276 282 292 300 293 283 286 303 311 318 321 325 331 336 348 354 351 345 356 0 358 6 41 54 46 39 35 36 39 31 32 35 31 11 309
202 187 191 231 232 214 253 257 237 256 277 278 293 315 324 302 296 314 318 321 329 335 340 348 350 346 347 359 356 356 4 26 57 48 36 34 35 35 34 35 35 32 34 30
Height
1494 1498 1500 1498 1497 1497 1498 1500 1500 1495 1492 1494 1493 1490 1485 1484 1483 1482 1481 1482 1482 1483 1483 1483 1483 1483 1483 1483 1483 1483 1482 1482 1482 1481 1481 1480 1480 1480 1480 1480 1480 1480 1480 1481
1498 1499 1494 1494 1495 1496 1498 1500 1499 1495 1492 1493 1492 1489 1483 1481 1480 1479 1479 1478 1479 1480 1480 1480 1480 1480 1480 1480 1480 1479 1479 1479 1478 1478 1477 1477 1477 1476 1476 1476 1476 1476 1476 1476
1497 1496 1493 1494 1495 1496 1497 1499 1498 1496 1493 1492 1493 1489 1483 1478 1477 1476 1476 1475 1476 1476 1476 1476 1477 1477 1477 1476 1476 1476 1476 1475 1475 1475 1474 1473 1473 1472 1471 1471 1471 1472 1472 1472
1496 1494 1493 1493 1494 1494 1497 1494 1494 1495 1498 1499 1496 1496 1482 1478 1476 1474 1473 1473 1473 1473 1473 1474 1474 1474 1473 1473 1473 1472 1472 1471 1471 1471 1470 1469 1468 1467 1466 1467 1467 1467 1468 1468
1496 1493 1493 1493 1493 1493 1495 1493 1494 1496 1499 1501 1497 1499 1484 1478 1475 1471 1470 1470 1471 1471 1471 1471 1471 1471 1470 1470 1469 1468 1468 1467 1467 1466 1466 1465 1464 1463 1463 1463 1462 1462 1463 1463
1495 1493 1493 1492 1491 1492 1493 1495 1497 1501 1503 1503 1495 1497 1486 1478 1473 1470 1468 1468 1468 1468 1468 1468 1468 1468 1467 1466 1465 1464 1463 1463 1462 1462 1461 1461 1460 1459 1458 1458 1457 1457 1457 1458
1496 1494 1492 1491 1492 1493 1494 1501 1507 1505 1509 1500 1490 1491 1481 1470 1468 1467 1466 1466 1466 1467 1466 1466 1465 1464 1463 1462 1461 1460 1459 1458 1458 1458 1457 1456 1455 1455 1454 1453 1453 1452 1453 1453
1499 1498 1493 1491 1492 1493 1495 1498 1504 1503 1503 1497 1491 1489 1476 1468 1465 1464 1464 1464 1465 1465 1464 1463 1462 1461 1460 1458 1457 1456 1455 1454 1453 1453 1452 1452 1451 1450 1450 1449 1449 1449 1449 1449
1499 1496 1492 1490 1490 1491 1494 1498 1497 1504 1505 1503 1493 1484 1473 1466 1465 1464 1463 1463 1463 1463 1462 1461 1460 1458 1457 1455 1453 1452 1451 1449 1449 1448 1447 1447 1446 1446 1446 1445 1445 1445 1445 1446
1496 1498 1493 1491 1490 1490 1491 1493 1500 1502 1500 1495 1488 1484 1477 1468 1466 1464 1464 1463 1462 1461 1460 1459 1457 1455 1453 1452 1450 1448 1447 1445 1444 1443 1443 1442 1442 1442 1441 1441 1441 1441 1441 1442
1495 1499 1497 1495 1494 1493 1493 1495 1496 1500 1500 1499 1493 1481 1467 1466 1464 1464 1463 1462 1461 1460 1459 1457 1455 1453 1451 1449 1446 1444 1443 1441 1440 1439 1438 1437 1437 1438 1438 1437 1437 1437 1438 1438
1495 1499 1500 1497 1494 1493 1492 1492 1495 1496 1498 1500 1499 1483 1465 1464 1462 1462 1462 1461 1460 1459 1457 1455 1453 1450 1448 1445 1443 1441 1439 1437 1436 1434 1434 1433 1433 1433 1433 1433 1433 1433 1433 1433
1495 1499 1499 1494 1497 1496 1495 1493 1494 1496 1497 1500 1495 1479 1465 1463 1463 1463 1462 1461 1459 1457 1455 1453 1450 1448 1445 1443 1440 1438 1436 1434 1432 1431 1430 1430 1430 1429 1429 1429 1429 1430 1429 1429
1493 1497 1497 1493 1489 1491 1493 1492 1492 1494 1495 1494 1488 1476 1468 1466 1465 1463 1461 1459 1457 1456 1453 1451 1448 1445 1442 1440 1437 1435 1432 1430 1428 1427 1427 1426 1426 1426 1425 1425 1426 1426 1426 1426
1494 1497 1496 1493 1490 1491 1489 1489 1490 1490 1487 1486 1478 1477 1469 1467 1466 1463 1461 1458 1456 1453 1451 1448 1446 1443 1440 1437 1434 1432 1429 1427 1426 1424 1424 1423 1423 1423 1423 1423 1423 1423 1423 1423
1495 1497 1496 1492 1488 1488 1487 1485 1486 1485 1483 1482 1479 1475 1466 1466 1464 1462 1460 1457 1454 1452 1449 1446 1443 1440 1437 1434 1432 1429 1427 1425 1423 1422 1422 1421 1421 1420 1420 1420 1420 1420 1420 1420
1497 1498 1497 1493 1490 1487 1485 1480 1482 1481 1479 1478 1476 1471 1466 1464 1462 1460 1458 1456 1453 1451 1448 1444 1441 1438 1435 1432 1430 1427 1425 1423 1422 1421 1420 1419 1419 1418 1418 1418 1417 1417 1417 1417
1496 1498 1499 1497 1493 1487 1477 1475 1475 1476 1475 1474 1470 1467 1466 1464 1461 1459 1457 1455 1452 1449 1445 1442 1439 1435 1433 1430 1428 1426 1424 1422 1420 1419 1418 1418 1417 1416 1416 1416 1415 1416 1416 1416
1492 1495 1498 1498 1494 1486 1476 1473 1474 1475 1472 1469 1469 1466 1464 1462 1459 1456 1455 1453 1451 1447 1444 1440 1437 1433 1430 1428 1426 1424 1422 1420 1419 1418 1417 1416 1415 1415 1414 1414 1414 1414 1414 1414
1493 1494 1497 1497 1491 1485 1474 1472 1471 1473 1472 1467 1466 1464 1463 1462 1462 1457 1454 1451 1448 1445 1441 1437 1434 1431 1428 1426 1424 1423 1421 1419 1418 1417 1416 1415 1414 1413 1413 1413 1412 1413 1413 1413
1496 1497 1497 1496 1493 1482 1474 1472 1472 1476 1471 1466 1464 1463 1462 1461 1459 1456 1453 1449 1446 1443 1439 1436 1432 1429 1427 1425 1424 1422 1420 1419 1418 1417 1416 1415 1414 1413 1412 1412 1412 1412 1412 1411
1491 1494 1496 1495 1492 1482 1472 1471 1473 1471 1466 1464 1463 1462 1460 1458 1456 1453 1451 1448 1444 1441 1438 1435 1431 1429 1427 1425 1423 1421 1420 1419 1418 1416 1415 1414 1413 1412 1412 1411 1411 1411 1411 1411
1486 1484 1484 1483 1479 1471 1469 1468 1468 1466 1465 1463 1462 1460 1459 1457 1454 1452 1449 1446 1443 1440 1437 1434 1432 1429 1427 1425 1423 1421 1420 1419 1418 1416 1415 1414 1413 1412 1412 1411 1411 1411 1411 1411
1480 1478 1479 1478 1471 1468 1467 1466 1466 1465 1463 1462 1460 1459 1457 1455 1453 1450 1448 1445 1442 1439 1437 1434 1431 1429 1427 1426 1424 1422 1421 1420 1418 1416 1415 1414 1413 1412 1412 1412 1411 1411 1411 1411
1474 1476 1476 1474 1468 1465 1463 1463 1463 1462 1461 1459 1458 1457 1455 1453 1451 1449 1446 1444 1441 1439 1436 1434 1431 1429 1428 1426 1424 1423 1421 1420 1418 1416 1415 1415 1414 1413 1412 1412 1412 1412 1411 1412
1468 1470 1471 1467 1463 1463 1461 1461 1461 1460 1458 1457 1456 1454 1453 1451 1449 1447 1445 1443 1441 1438 1436 1434 1431 1429 1428 1426 1424 1423 1421 1420 1418 1416 1416 1415 1414 1413 1413 1412 1412 1412 1412 1411